EW3591 Weather Reports


time (UTC)temp
F
wind
direction
speed
knots
gust
knots
rain 1hr
in
rain 24hr
in
rain mn
in
humidity
%
barometer
mb
20260505204836 51 96 1.7 7.8 0.04 0.04 0.04 87 1006.8
20260505204636 51 191 0.9 7.8 0.04 0.04 0.04 88 1006.9
20260505204435 51 172 1.7 7.8 0.04 0.04 0.04 87 1006.9
20260505204235 51 137 1.7 7.8 0.04 0.04 0.04 87 1006.9
20260505204035 52 93 2.6 7.8 0.04 0.04 0.04 86 1006.9
20260505203835 52 130 2.6 7.0 0.04 0.04 0.04 86 1006.8
20260505203634 52 54 2.6 7.0 0.04 0.04 0.04 86 1006.9
20260505203434 52 85 1.7 6.1 0.03 0.03 0.03 86 1007.0
20260505203234 52 94 1.7 6.1 0.03 0.03 0.03 85 1007.0
20260505203033 52 49 1.7 7.0 0.03 0.03 0.03 85 1007.0
20260505202833 52 89 0.9 7.0 0.02 0.02 0.02 85 1007.0
20260505202633 52 70 0.9 7.0 0.02 0.02 0.02 85 1006.9
20260505202432 52 63 1.7 7.0 0.02 0.02 0.02 86 1007.0
20260505202232 52 118 1.7 7.0 0.02 0.02 0.02 85 1006.9
20260505202032 52 250 0.9 6.1 0.02 0.02 0.02 85 1006.9
20260505201832 52 180 1.7 6.1 0.02 0.02 0.02 85 1006.9
20260505201631 52 164 1.7 6.1 0.02 0.02 0.02 85 1006.9
20260505201431 52 84 0.9 7.0 0.02 0.02 0.02 86 1006.8
20260505201231 52 60 1.7 8.7 0.02 0.02 0.02 85 1006.8
20260505201030 52 303 1.7 9.6 0.02 0.02 0.02 85 1006.8
20260505200830 52 38 1.7 9.6 0.02 0.02 0.02 85 1006.7
20260505200630 52 35 0.9 13.9 0.02 0.02 0.02 84 1006.7
20260505200429 53 29 2.6 13.9 0.02 0.02 0.02 83 1006.7
20260505200229 53 76 3.5 13.9 0.01 0.01 0.01 82 1006.8
20260505200029 53 133 4.3 13.9 0.01 0.01 0.01 81 1006.9
20260505195829 54 79 4.3 13.9 0.01 0.01 0.01 80 1006.8
20260505195628 54 70 5.2 10.4 0.01 0.01 0.01 79 1007.0
20260505195428 54 11 4.3 10.4 0.01 0.01 0.01 77 1006.8
20260505195228 55 56 3.5 9.6 0.00 0.00 0.00 76 1006.7
20260505195027 55 281 1.7 8.7 0.00 0.00 0.00 76 1006.7
20260505194827 56 261 1.7 8.7 0.00 0.00 0.00 74 1006.4
20260505194627 56 96 3.5 8.7 0.00 0.00 0.00 73 1006.3
20260505194426 56 306 3.5 8.7 0.00 0.00 0.00 71 1006.4
20260505194226 57 16 3.5 8.7 0.00 0.00 0.00 70 1006.3
20260505194026 57 110 3.5 9.6 0.00 0.00 0.00 69 1006.4
20260505193826 57 200 2.6 9.6 0.00 0.00 0.00 68 1006.3
20260505193625 58 278 2.6 9.6 0.00 0.00 0.00 66 1006.2
20260505193425 58 232 4.3 9.6 0.00 0.00 0.00 65 1006.0
20260505193225 58 235 3.5 10.4 0.00 0.00 0.00 64 1006.0
20260505193024 59 42 3.5 10.4 0.00 0.00 0.00 64 1006.0
20260505192824 59 290 4.3 10.4 0.00 0.00 0.00 64 1006.0
20260505192624 59 272 2.6 10.4 0.00 0.00 0.00 64 1006.1
20260505192423 60 321 4.3 10.4 0.00 0.00 0.00 63 1006.2
20260505192223 60 57 3.5 7.8 0.00 0.00 0.00 62 1006.3
20260505192023 61 348 3.5 7.8 0.00 0.00 0.00 61 1006.2
20260505191823 61 335 2.6 7.8 0.00 0.00 0.00 61 1006.2
20260505191622 61 25 2.6 7.8 0.00 0.00 0.00 60 1006.1
20260505191422 62 111 3.5 16.5 0.00 0.00 0.00 60 1006.1
20260505191222 62 264 2.6 17.4 0.00 0.00 0.00 61 1006.0
20260505191021 62 89 1.7 17.4 0.00 0.00 0.00 61 1006.1
20260505190821 62 54 2.6 17.4 0.00 0.00 0.00 61 1005.9
20260505190621 62 168 4.3 17.4 0.00 0.00 0.00 61 1005.9
20260505190420 62 109 3.5 17.4 0.00 0.00 0.00 61 1005.9
20260505190220 63 140 2.6 10.4 0.00 0.00 0.00 61 1005.8
20260505190020 62 108 1.7 10.4 0.00 0.00 0.00 62 1005.9
20260505185820 62 56 3.5 11.3 0.00 0.00 0.00 61 1005.8
20260505185619 62 253 3.5 12.2 0.00 0.00 0.00 61 1005.7
20260505185419 62 310 2.6 12.2 0.00 0.00 0.00 61 1005.7
20260505185219 62 245 3.5 12.2 0.00 0.00 0.00 61 1005.6
20260505185018 62 121 5.2 12.2 0.00 0.00 0.00 61 1005.6
20260505184818 62 127 4.3 12.2 0.00 0.00 0.00 61 1005.6
20260505184618 62 100 3.5 11.3 0.00 0.00 0.00 61 1005.5
20260505184417 62 116 1.7 10.4 0.00 0.00 0.00 61 1005.7
20260505184217 62 161 3.5 11.3 0.00 0.00 0.00 61 1005.6
20260505184017 62 158 4.3 11.3 0.00 0.00 0.00 60 1005.5
20260505183816 62 151 3.5 13.9 0.00 0.00 0.00 60 1005.5
20260505183616 62 71 2.6 13.9 0.00 0.00 0.00 61 1005.5
20260505183416 62 65 3.5 13.9 0.00 0.00 0.00 61 1005.5
20260505183216 62 137 5.2 13.9 0.00 0.00 0.00 60 1005.6
20260505183015 62 162 5.2 18.2 0.00 0.00 0.00 60 1005.6
20260505182815 63 212 4.3 18.2 0.00 0.00 0.00 60 1005.6
20260505182615 63 189 4.3 18.2 0.00 0.00 0.00 60 1005.7
20260505182416 63 172 6.1 18.2 0.00 0.00 0.00 61 1005.5
20260505182214 63 207 7.0 18.2 0.00 0.00 0.00 60 1005.5
20260505182014 63 222 7.0 18.2 0.00 0.00 0.00 59 1005.5
20260505181813 64 253 4.3 13.9 0.00 0.00 0.00 60 1005.6
20260505181613 64 265 2.6 10.4 0.00 0.00 0.00 60 1005.5
20260505181413 64 290 2.6 10.4 0.00 0.00 0.00 60 1005.4
20260505181213 64 280 3.5 10.4 0.00 0.00 0.00 60 1005.4
20260505181012 64 207 3.5 9.6 0.00 0.00 0.00 61 1005.3
20260505180812 64 221 3.5 9.6 0.00 0.00 0.00 62 1005.2
20260505180612 64 200 4.3 9.6 0.00 0.00 0.00 62 1005.1
20260505180411 64 230 3.5 9.6 0.00 0.00 0.00 63 1005.1
20260505180211 64 233 3.5 7.8 0.00 0.00 0.00 62 1005.1
20260505180011 63 146 3.5 7.8 0.00 0.00 0.00 63 1005.1
20260505175810 63 233 4.3 7.8 0.00 0.00 0.00 63 1005.0
20260505175610 63 216 4.3 7.8 0.00 0.00 0.00 63 1005.0
20260505175410 64 222 3.5 8.7 0.00 0.00 0.00 64 1004.9
20260505175210 64 203 2.6 9.6 0.00 0.00 0.00 65 1004.8
20260505175009 63 128 3.5 9.6 0.00 0.00 0.00 65 1004.8
20260505174809 63 147 3.5 9.6 0.00 0.00 0.00 65 1004.8
20260505174609 63 214 4.3 9.6 0.00 0.00 0.00 64 1004.8
20260505174408 63 203 4.3 10.4 0.00 0.00 0.00 65 1004.8
20260505174208 63 143 3.5 10.4 0.00 0.00 0.00 66 1004.8
20260505174008 63 216 4.3 10.4 0.00 0.00 0.00 65 1004.6
20260505173807 63 190 3.5 11.3 0.00 0.00 0.00 65 1004.7
20260505173607 63 167 2.6 16.5 0.00 0.00 0.00 66 1004.6
20260505173407 63 223 3.5 17.4 0.00 0.00 0.00 66 1004.6
20260505173207 63 243 4.3 17.4 0.00 0.00 0.00 65 1004.6
20260505173006 63 120 6.1 17.4 0.00 0.00 0.00 65 1004.7
20260505172806 63 227 5.2 17.4 0.00 0.00 0.00 66 1004.7
20260505172606 63 242 4.3 13.0 0.00 0.00 0.00 65 1004.7
20260505172405 64 150 3.5 13.0 0.00 0.00 0.00 66 1004.7
20260505172205 64 100 4.3 13.0 0.00 0.00 0.00 66 1004.7
20260505172005 64 158 5.2 18.2 0.00 0.00 0.00 66 1004.6
20260505171804 64 188 4.3 18.2 0.00 0.00 0.00 66 1004.5
20260505171604 63 241 5.2 18.2 0.00 0.00 0.00 66 1004.5
20260505171404 63 250 5.2 18.2 0.00 0.00 0.00 66 1004.5
20260505171204 63 97 6.1 18.2 0.00 0.00 0.00 67 1004.5
20260505171003 63 176 5.2 18.2 0.00 0.00 0.00 67 1004.5
20260505170803 63 264 5.2 12.2 0.00 0.00 0.00 67 1004.6
20260505170603 63 223 5.2 12.2 0.00 0.00 0.00 67 1004.6
20260505170402 63 286 5.2 12.2 0.00 0.00 0.00 68 1004.7
20260505170202 63 208 6.1 12.2 0.00 0.00 0.00 68 1004.6
20260505170002 63 160 2.6 12.2 0.00 0.00 0.00 68 1004.7
20260505165801 64 180 2.6 8.7 0.00 0.00 0.00 69 1004.6
20260505165601 64 211 3.5 8.7 0.00 0.00 0.00 68 1004.5
20260505165401 64 46 2.6 8.7 0.00 0.00 0.00 68 1004.6
20260505165201 64 249 3.5 9.6 0.00 0.00 0.00 69 1004.6
20260505165000 64 163 2.6 9.6 0.00 0.00 0.00 68 1004.6
20260505164800 64 44 2.6 9.6 0.00 0.00 0.00 68 1004.6
20260505164600 65 238 3.5 11.3 0.00 0.00 0.00 68 1004.5
20260505164359 65 67 3.5 12.2 0.00 0.00 0.00 68 1004.5
20260505164159 65 68 2.6 12.2 0.00 0.00 0.00 69 1004.5
20260505163959 64 70 2.6 12.2 0.00 0.00 0.00 70 1004.5
20260505163758 64 90 3.5 12.2 0.00 0.00 0.00 71 1004.3
20260505163558 64 251 2.6 12.2 0.00 0.00 0.00 71 1004.5
20260505163358 63 228 2.6 8.7 0.00 0.00 0.00 72 1004.3
20260505163158 63 120 3.5 8.7 0.00 0.00 0.00 72 1004.4
20260505162957 63 122 4.3 8.7 0.00 0.00 0.00 72 1004.3
20260505162757 63 178 3.5 8.7 0.00 0.00 0.00 73 1004.4
20260505162557 62 187 2.6 8.7 0.00 0.00 0.00 73 1004.6
20260505162356 62 233 4.3 10.4 0.00 0.00 0.00 73 1004.4
20260505162156 62 115 4.3 19.1 0.00 0.00 0.00 72 1004.5
20260505161956 63 187 3.5 19.1 0.00 0.00 0.00 72 1004.5
20260505161755 63 184 4.3 19.1 0.00 0.00 0.00 72 1004.5
20260505161555 63 165 6.1 19.1 0.00 0.00 0.00 72 1004.5
20260505161355 63 189 5.2 19.1 0.00 0.00 0.00 72 1004.6
20260505161155 63 231 5.2 15.6 0.00 0.00 0.00 72 1004.6
20260505160954 63 210 6.1 16.5 0.00 0.00 0.00 71 1004.5
20260505160754 64 199 5.2 16.5 0.00 0.00 0.00 72 1004.5
20260505160554 64 157 5.2 16.5 0.00 0.00 0.00 72 1004.3
20260505160353 64 155 6.1 16.5 0.00 0.00 0.00 72 1004.3
20260505160153 64 250 7.0 16.5 0.00 0.00 0.00 71 1004.2
20260505153349 66 261 3.5 9.6 0.00 0.00 0.00 72 1003.3
20260505153149 66 198 4.3 9.6 0.00 0.00 0.00 72 1003.3
20260505152948 66 119 3.5 9.6 0.00 0.00 0.00 73 1003.3
20260505152748 65 131 3.5 13.0 0.00 0.00 0.00 74 1003.3
20260505152548 65 157 4.3 13.0 0.00 0.00 0.00 74 1003.3
20260505152347 65 137 3.5 13.0 0.00 0.00 0.00 75 1003.3
20260505152147 64 254 4.3 13.0 0.00 0.00 0.00 75 1003.3
20260505151947 64 219 5.2 13.0 0.00 0.00 0.00 75 1003.3
20260505151746 64 239 3.5 11.3 0.00 0.00 0.00 76 1003.4
20260505151546 63 273 2.6 10.4 0.00 0.00 0.00 77 1003.4
20260505151346 63 211 3.5 11.3 0.00 0.00 0.00 77 1003.4
20260505151145 63 278 4.3 11.3 0.00 0.00 0.00 76 1003.3
20260505150945 63 172 4.3 13.9 0.00 0.00 0.00 77 1003.4
20260505150745 63 314 5.2 13.9 0.00 0.00 0.00 77 1003.5
20260505150545 63 96 5.2 15.6 0.00 0.00 0.00 76 1003.7
20260505150344 64 128 4.3 15.6 0.00 0.00 0.00 76 1003.4
20260505150144 64 207 6.1 15.6 0.00 0.00 0.00 76 1003.5
20260505140536 64 212 5.2 14.8 0.00 0.00 0.00 78 1001.7
20260505140335 63 198 6.1 14.8 0.00 0.00 0.00 77 1001.6
20260505140135 63 217 6.1 13.9 0.00 0.00 0.00 78 1001.8
20260505130247 61 186 4.3 15.6 0.00 0.00 0.00 78 1001.4
20260505124845 61 240 4.3 19.1 0.00 0.00 0.00 78 1000.8
20260505124644 61 200 6.1 19.1 0.00 0.00 0.00 78 1000.7
20260505124444 61 191 7.0 19.1 0.00 0.00 0.00 78 1000.8
20260505124244 61 199 6.1 13.9 0.00 0.00 0.00 78 1000.7
20260505124044 61 211 6.1 14.8 0.00 0.00 0.00 78 1000.7
20260505123843 61 196 4.3 14.8 0.00 0.00 0.00 78 1000.6
20260505123643 61 188 6.1 14.8 0.00 0.00 0.00 78 1000.7
20260505123443 61 206 7.0 14.8 0.00 0.00 0.00 78 1000.7
20260505123242 61 213 7.0 14.8 0.00 0.00 0.00 78 1000.7
20260505123042 61 205 6.1 13.9 0.00 0.00 0.00 78 1000.6
20260505122842 61 215 5.2 12.2 0.00 0.00 0.00 78 1000.7
20260505122641 61 215 6.1 13.9 0.00 0.00 0.00 78 1000.7
20260505122441 61 227 5.2 13.9 0.00 0.00 0.00 78 1000.7
20260505122241 61 214 5.2 13.9 0.00 0.00 0.00 78 1000.7
20260505122041 61 224 5.2 13.9 0.00 0.00 0.00 78 1000.7
20260505121840 61 214 7.0 16.5 0.00 0.00 0.00 78 1000.6
20260505121640 61 211 7.0 19.1 0.00 0.00 0.00 78 1000.6
20260505121440 61 187 6.1 20.0 0.00 0.00 0.00 78 1000.6
20260505121239 61 194 6.1 20.0 0.00 0.00 0.00 78 1000.6
20260505121039 61 201 7.0 20.0 0.00 0.00 0.00 78 1000.6
20260505120839 61 210 7.0 20.0 0.00 0.00 0.00 78 1000.6
20260505120638 61 194 7.0 20.0 0.00 0.00 0.00 79 1000.5
20260505120438 60 205 5.2 17.4 0.00 0.00 0.00 79 1000.7
20260505120238 60 228 5.2 17.4 0.00 0.00 0.00 79 1000.5
20260505120038 60 223 7.0 17.4 0.00 0.00 0.00 78 1000.6
20260505115837 60 232 6.1 17.4 0.00 0.00 0.00 78 1000.5
20260505115637 61 213 4.3 13.9 0.00 0.00 0.00 78 1000.5
20260505115437 61 188 4.3 13.9 0.00 0.00 0.00 78 1000.6
20260505115236 61 214 5.2 13.9 0.00 0.00 0.00 78 1000.6
20260505115036 61 207 5.2 18.2 0.00 0.00 0.00 78 1000.6
20260505114836 61 193 5.2 18.2 0.00 0.00 0.00 78 1000.7
20260505114635 61 220 5.2 18.2 0.00 0.00 0.00 78 1000.5
20260505114435 61 214 5.2 18.2 0.00 0.00 0.00 78 1000.5
20260505114235 61 194 5.2 18.2 0.00 0.00 0.00 78 1000.5
20260505114035 61 216 5.2 18.2 0.00 0.00 0.00 78 1000.5
20260505113834 61 219 5.2 13.9 0.00 0.00 0.00 78 1000.5
20260505113634 61 233 3.5 13.9 0.00 0.00 0.00 78 1000.5
20260505113434 61 218 3.5 13.9 0.00 0.00 0.00 77 1000.4
20260505113233 61 222 5.2 13.9 0.00 0.00 0.00 77 1000.4
20260505113033 61 171 6.1 13.9 0.00 0.00 0.00 77 1000.3
20260505112833 61 224 4.3 13.0 0.00 0.00 0.00 77 1000.4
20260505112632 61 214 5.2 13.9 0.00 0.00 0.00 77 1000.4
20260505112432 61 197 5.2 14.8 0.00 0.00 0.00 77 1000.3
20260505112232 61 223 4.3 14.8 0.00 0.00 0.00 77 1000.4
20260505112032 60 233 4.3 14.8 0.00 0.00 0.00 77 1000.3
20260505111831 61 253 4.3 14.8 0.00 0.00 0.00 77 1000.3
20260505111631 61 230 6.1 14.8 0.00 0.00 0.00 77 1000.2
20260505111431 60 226 5.2 13.9 0.00 0.00 0.00 78 1000.1
20260505111230 60 236 4.3 13.9 0.00 0.00 0.00 78 1000.2
20260505111030 60 197 6.1 13.9 0.00 0.00 0.00 78 1000.2
20260505110830 60 194 5.2 17.4 0.00 0.00 0.00 78 1000.2
20260505110629 60 228 3.5 17.4 0.00 0.00 0.00 78 1000.2
20260505110429 60 237 4.3 17.4 0.00 0.00 0.00 78 1000.2
20260505110229 60 207 5.2 17.4 0.00 0.00 0.00 78 1000.2
20260505102023 58 201 6.1 17.4 0.00 0.00 0.00 84 999.9
20260505101822 58 195 5.2 13.0 0.00 0.00 0.00 84 999.9
20260505101622 58 194 5.2 13.0 0.00 0.00 0.00 85 999.8
20260505101422 58 206 6.1 11.3 0.00 0.00 0.00 85 999.8
20260505101221 58 218 5.2 10.4 0.00 0.00 0.00 85 999.8
20260505101021 57 211 3.5 10.4 0.00 0.00 0.00 86 999.8
20260505100821 57 196 4.3 9.6 0.00 0.00 0.00 86 999.8
20260505100620 57 196 3.5 9.6 0.00 0.00 0.00 86 999.8
20260505100420 57 230 3.5 9.6 0.00 0.00 0.00 86 999.7
20260505100220 57 225 3.5 9.6 0.00 0.00 0.00 86 999.5
20260505100019 57 229 2.6 9.6 0.00 0.00 0.00 86 999.5
20260505095819 57 230 2.6 9.6 0.00 0.00 0.00 86 999.4
20260505095619 57 224 5.2 9.6 0.00 0.00 0.00 86 999.4
20260505095419 57 208 5.2 9.6 0.00 0.00 0.00 87 999.2
20260505095218 57 211 4.3 9.6 0.00 0.00 0.00 87 999.2
20260505095018 57 219 5.2 9.6 0.00 0.00 0.00 87 999.3
20260505094818 57 206 4.3 9.6 0.00 0.00 0.00 87 999.2
20260505094617 57 198 3.5 9.6 0.00 0.00 0.00 87 999.3
20260505094417 57 204 4.3 9.6 0.00 0.00 0.00 87 999.2
20260505094217 57 218 3.5 9.6 0.00 0.00 0.00 87 999.2
20260505094017 56 214 2.6 7.8 0.00 0.00 0.00 87 999.3
20260505093816 56 225 2.6 7.8 0.00 0.00 0.00 87 999.3
20260505093616 56 216 3.5 7.8 0.00 0.00 0.00 87 999.3
20260505093416 56 212 2.6 7.8 0.00 0.00 0.00 87 999.4
20260505093215 56 224 3.5 8.7 0.00 0.00 0.00 87 999.3
20260505093015 56 200 4.3 9.6 0.00 0.00 0.00 87 999.3
20260505092815 56 213 4.3 10.4 0.00 0.00 0.00 87 999.3
20260505092614 56 212 4.3 10.4 0.00 0.00 0.00 87 999.3
20260505092414 56 212 4.3 10.4 0.00 0.00 0.00 87 999.2
20260505092214 57 220 3.5 10.4 0.00 0.00 0.00 87 999.2
20260505092013 57 218 4.3 10.4 0.00 0.00 0.00 87 999.2
20260505091813 57 218 4.3 10.4 0.00 0.00 0.00 87 999.2
20260505091613 57 220 5.2 10.4 0.00 0.00 0.00 87 999.2
20260505091413 57 207 6.1 10.4 0.00 0.00 0.00 87 999.2
20260505091212 57 224 5.2 10.4 0.00 0.00 0.00 86 999.2
20260505091012 57 224 3.5 13.0 0.00 0.00 0.00 86 999.2
20260505090812 57 209 4.3 13.0 0.00 0.00 0.00 86 999.2
20260505090611 57 208 5.2 13.0 0.00 0.00 0.00 86 999.2
20260505090411 57 203 4.3 13.0 0.00 0.00 0.00 86 999.2
20260505090211 57 207 6.1 13.0 0.00 0.00 0.00 86 999.2
20260505090010 57 220 4.3 13.0 0.00 0.00 0.00 86 999.2
20260505085810 57 223 5.2 13.0 0.00 0.00 0.00 86 999.1
20260505085610 57 208 6.1 13.0 0.00 0.00 0.00 86 999.1
20260505085410 57 199 5.2 11.3 0.00 0.00 0.00 86 999.1
20260505085209 57 215 4.3 11.3 0.00 0.00 0.00 86 999.0
20260505085009 57 226 4.3 10.4 0.00 0.00 0.00 85 999.1
20260505084809 57 205 6.1 10.4 0.00 0.00 0.00 85 999.0
20260505084608 58 190 5.2 10.4 0.00 0.00 0.00 85 999.0
20260505084408 58 213 4.3 11.3 0.00 0.00 0.00 85 999.0
20260505084208 58 234 3.5 12.2 0.00 0.00 0.00 85 998.9
20260505084007 58 227 4.3 12.2 0.00 0.00 0.00 85 999.0
20260505083807 58 207 6.1 12.2 0.00 0.00 0.00 85 999.0
20260505083607 58 217 5.2 12.2 0.00 0.00 0.00 85 999.0
20260505083407 58 213 5.2 12.2 0.00 0.00 0.00 85 999.0
20260505083206 58 220 5.2 12.2 0.00 0.00 0.00 84 998.9
20260505083006 58 216 4.3 12.2 0.00 0.00 0.00 84 999.0
20260505082806 58 208 4.3 10.4 0.00 0.00 0.00 84 998.9
20260505082605 58 216 5.2 11.3 0.00 0.00 0.00 84 999.0
20260505082405 58 220 5.2 11.3 0.00 0.00 0.00 84 999.0
20260505082205 58 219 4.3 11.3 0.00 0.00 0.00 84 999.0
20260505082004 58 219 5.2 12.2 0.00 0.00 0.00 84 999.0
20260505081804 58 211 5.2 12.2 0.00 0.00 0.00 84 999.0
20260505081604 59 210 4.3 12.2 0.00 0.00 0.00 84 999.1
20260505081404 59 218 5.2 12.2 0.00 0.00 0.00 83 999.2
20260505081203 59 222 5.2 12.2 0.00 0.00 0.00 83 999.2
20260505081003 59 219 6.1 12.2 0.00 0.00 0.00 83 999.3
20260505080803 59 211 5.2 12.2 0.00 0.00 0.00 83 999.3
20260505080602 59 213 5.2 9.6 0.00 0.00 0.00 83 999.3
20260505080402 59 218 5.2 9.6 0.00 0.00 0.00 83 999.4
20260505080202 59 222 2.6 7.0 0.00 0.00 0.00 82 999.5
20260505080002 59 211 4.3 7.0 0.00 0.00 0.00 82 999.4
20260505075801 59 227 3.5 7.0 0.00 0.00 0.00 82 999.5
20260505075601 59 243 3.5 7.0 0.00 0.00 0.00 82 999.5
20260505075401 59 238 2.6 8.7 0.00 0.00 0.00 82 999.5
20260505075200 60 228 3.5 10.4 0.00 0.00 0.00 82 999.5
20260505075000 60 223 2.6 11.3 0.00 0.00 0.00 82 999.6
20260505074800 60 207 2.6 13.9 0.00 0.00 0.00 82 999.6
20260505074559 60 219 4.3 13.9 0.00 0.00 0.00 81 999.5
20260505074359 60 214 4.3 13.9 0.00 0.00 0.00 81 999.7
20260505074159 60 213 4.3 13.9 0.00 0.00 0.00 81 999.6
20260505073958 60 228 4.3 13.9 0.00 0.00 0.00 81 999.6
20260505073758 60 225 4.3 13.0 0.00 0.00 0.00 81 999.5
20260505073558 60 221 6.1 13.0 0.00 0.00 0.00 81 999.5
20260505073358 60 219 5.2 13.0 0.00 0.00 0.00 81 999.5
20260505073157 60 214 4.3 13.0 0.00 0.00 0.00 81 999.5
20260505072957 60 212 5.2 13.0 0.00 0.00 0.00 81 999.5
20260505072757 60 211 7.8 13.0 0.00 0.00 0.00 81 999.5
20260505072556 60 211 7.0 12.2 0.00 0.00 0.00 81 999.5
20260505072356 60 227 5.2 13.0 0.00 0.00 0.00 81 999.5
20260505072156 60 238 5.2 13.0 0.00 0.00 0.00 81 999.7
20260505071955 60 226 6.1 13.0 0.00 0.00 0.00 82 999.6
20260505071755 60 218 6.1 13.0 0.00 0.00 0.00 82 999.5
20260505071555 60 224 7.0 15.6 0.00 0.00 0.00 81 999.6
20260505071355 60 222 5.2 15.6 0.00 0.00 0.00 81 999.5
20260505071154 60 209 6.1 15.6 0.00 0.00 0.00 81 999.5
20260505070954 61 206 7.0 15.6 0.00 0.00 0.00 81 999.4
20260505070754 61 202 7.8 15.6 0.00 0.00 0.00 81 999.4
20260505070553 61 219 5.2 14.8 0.00 0.00 0.00 81 999.6
20260505070353 61 223 7.0 13.9 0.00 0.00 0.00 81 999.4
20260505070153 61 224 7.0 17.4 0.00 0.00 0.00 81 999.5
20260505065952 61 227 6.1 17.4 0.00 0.00 0.00 81 999.5
20260505065752 61 220 5.2 17.4 0.00 0.00 0.00 81 999.4
20260505065552 61 213 6.1 17.4 0.00 0.00 0.00 81 999.5
20260505065352 61 217 6.1 17.4 0.00 0.00 0.00 81 999.5
20260505065151 61 216 6.1 13.9 0.00 0.00 0.00 81 999.5
20260505064951 61 226 7.0 13.9 0.00 0.00 0.00 81 999.5
20260505064751 61 222 6.1 13.0 0.00 0.00 0.00 81 999.5
20260505064550 61 206 6.1 13.0 0.00 0.00 0.00 81 999.6
20260505064350 61 214 6.1 14.8 0.00 0.00 0.00 81 999.7
20260505064150 61 225 6.1 14.8 0.00 0.00 0.00 81 999.6
20260505063949 61 223 5.2 14.8 0.00 0.00 0.00 81 999.7
20260505063749 61 208 7.0 14.8 0.00 0.00 0.00 80 999.7
20260505063549 61 211 6.1 14.8 0.00 0.00 0.00 81 999.8
20260505063349 61 223 4.3 9.6 0.00 0.00 0.00 80 999.7
20260505063148 61 223 5.2 9.6 0.00 0.00 0.00 80 999.7
20260505062948 61 220 5.2 11.3 0.00 0.00 0.00 80 999.8
20260505062748 61 209 4.3 13.0 0.00 0.00 0.00 80 999.8
20260505062547 61 218 4.3 15.6 0.00 0.00 0.00 80 999.9
20260505062347 61 235 4.3 15.6 0.00 0.00 0.00 80 999.8
20260505062147 61 224 6.1 15.6 0.00 0.00 0.00 80 999.8
20260505061946 61 225 6.1 15.6 0.00 0.00 0.00 80 999.9
20260505061746 61 215 5.2 15.6 0.00 0.00 0.00 80 999.8
20260505061546 61 213 4.3 12.2 0.00 0.00 0.00 80 1000.0
20260505061345 61 221 4.3 12.2 0.00 0.00 0.00 80 1000.0
20260505061145 61 210 5.2 12.2 0.00 0.00 0.00 80 1000.0
20260505060945 61 212 6.1 12.2 0.00 0.00 0.00 81 1000.0
20260505060745 61 217 6.1 12.2 0.00 0.00 0.00 81 1000.0
20260505060544 60 222 5.2 12.2 0.00 0.00 0.00 81 1000.0
20260505060344 60 222 4.3 12.2 0.00 0.00 0.00 81 1000.0
20260505060144 60 220 4.3 12.2 0.00 0.00 0.00 81 1000.1
20260505055943 60 210 5.2 12.2 0.00 0.00 0.00 81 1000.1
20260505055743 60 209 4.3 12.2 0.00 0.00 0.00 81 1000.1
20260505055543 60 220 5.2 12.2 0.00 0.00 0.00 81 1000.1
20260505055342 60 216 7.0 12.2 0.00 0.00 0.00 81 1000.2
20260505055142 60 215 6.1 12.2 0.00 0.00 0.00 81 1000.2
20260505054942 60 224 4.3 13.0 0.00 0.00 0.00 80 1000.2
20260505054742 60 220 4.3 13.0 0.00 0.00 0.00 80 1000.2
20260505054541 60 212 4.3 13.0 0.00 0.00 0.00 80 1000.2
20260505054341 60 217 6.1 13.9 0.00 0.00 0.00 80 1000.2
20260505054141 60 223 4.3 13.9 0.00 0.00 0.00 80 1000.2
20260505053940 60 214 6.1 15.6 0.00 0.00 0.00 79 1000.3
20260505053740 60 214 7.0 16.5 0.00 0.00 0.00 79 1000.3
20260505053540 60 208 6.1 16.5 0.00 0.00 0.00 79 1000.3
20260505053339 60 211 7.0 16.5 0.00 0.00 0.00 79 1000.3
20260505053139 60 204 7.8 16.5 0.00 0.00 0.00 79 1000.3
20260505052939 60 218 5.2 13.0 0.00 0.00 0.00 80 1000.4
20260505052739 60 229 3.5 11.3 0.00 0.00 0.00 80 1000.4
20260505052538 60 235 5.2 11.3 0.00 0.00 0.00 80 1000.5
20260505052338 60 215 4.3 11.3 0.00 0.00 0.00 80 1000.4
20260505052138 60 219 4.3 13.9 0.00 0.00 0.00 81 1000.4
20260505051937 60 197 4.3 14.8 0.00 0.00 0.00 81 1000.5
20260505051737 60 209 5.2 14.8 0.00 0.00 0.00 81 1000.5
20260505051537 60 214 6.1 14.8 0.00 0.00 0.00 81 1000.4
20260505051337 60 209 5.2 14.8 0.00 0.00 0.00 80 1000.5
20260505051136 60 228 6.1 14.8 0.00 0.00 0.00 80 1000.4
20260505050936 60 244 4.3 13.0 0.00 0.00 0.00 80 1000.4
20260505050736 60 238 3.5 11.3 0.00 0.00 0.00 80 1000.3
20260505050535 60 217 4.3 14.8 0.00 0.00 0.00 80 1000.3
20260505050335 60 215 4.3 18.2 0.00 0.00 0.00 80 1000.3
20260505050135 60 221 5.2 18.2 0.00 0.00 0.00 79 1000.4
20260505041728 62 218 7.0 18.2 0.00 0.00 0.00 77 1000.7
20260505041528 62 214 5.2 14.8 0.00 0.00 0.00 77 1000.7
20260505041327 62 227 6.1 14.8 0.00 0.00 0.00 76 1000.7
20260505041127 62 205 5.2 14.8 0.00 0.00 0.00 76 1000.6
20260505040927 62 221 6.1 16.5 0.00 0.00 0.00 76 1000.5
20260505040727 62 197 7.8 17.4 0.00 0.00 0.00 76 1000.4
20260505040526 62 171 7.8 17.4 0.00 0.00 0.00 76 1000.5
20260505040326 62 194 8.7 17.4 0.00 0.00 0.00 76 1000.5
20260505040126 62 201 8.7 17.4 0.00 0.00 0.00 76 1000.4
20260505035925 62 198 7.8 17.4 0.00 0.00 0.00 76 1000.5
20260505035725 62 208 5.2 17.4 0.00 0.00 0.00 76 1000.4
20260505035525 62 198 6.1 17.4 0.00 0.00 0.00 77 1000.4
20260505035324 62 192 7.0 17.4 0.00 0.00 0.00 77 1000.5
20260505035124 62 207 4.3 16.5 0.00 0.00 0.00 77 1000.5
20260505034924 62 230 5.2 14.8 0.00 0.00 0.00 78 1000.4
20260505034724 62 206 4.3 10.4 0.00 0.00 0.00 78 1000.4
20260505034523 62 218 4.3 10.4 0.00 0.00 0.00 78 1000.4
20260505034323 62 234 4.3 12.2 0.00 0.00 0.00 78 1000.4
20260505034123 62 215 5.2 12.2 0.00 0.00 0.00 78 1000.4
20260505033922 62 215 5.2 13.0 0.00 0.00 0.00 78 1000.4
20260505033722 62 222 6.1 13.0 0.00 0.00 0.00 77 1000.4
20260505033522 62 217 6.1 15.6 0.00 0.00 0.00 77 1000.5
20260505033321 62 216 6.1 15.6 0.00 0.00 0.00 77 1000.5
20260505033121 62 211 6.1 15.6 0.00 0.00 0.00 77 1000.4
20260505032921 62 220 5.2 15.6 0.00 0.00 0.00 77 1000.5
20260505032721 62 226 5.2 15.6 0.00 0.00 0.00 77 1000.5
20260505032520 62 226 4.3 14.8 0.00 0.00 0.00 77 1000.5
20260505032320 62 209 6.1 14.8 0.00 0.00 0.00 77 1000.5
20260505032120 62 221 7.0 14.8 0.00 0.00 0.00 77 1000.7
20260505031919 61 219 7.0 14.8 0.00 0.00 0.00 77 1000.7
20260505031719 61 213 7.8 13.0 0.00 0.00 0.00 78 1000.7
20260505031519 61 218 6.1 16.5 0.00 0.00 0.00 78 1000.7
20260505031318 61 216 6.1 16.5 0.00 0.00 0.00 78 1000.8
20260505031118 61 215 7.0 16.5 0.00 0.00 0.00 78 1000.9
20260505030918 61 214 8.7 16.5 0.00 0.00 0.00 78 1001.0
20260505030718 61 208 8.7 16.5 0.00 0.00 0.00 78 1001.0
20260505030517 61 203 7.0 16.5 0.00 0.00 0.00 78 1001.1
20260505030317 60 209 7.0 15.6 0.00 0.00 0.00 78 1001.1
20260505030117 60 212 7.0 15.6 0.00 0.00 0.00 78 1001.1
20260505025916 60 216 5.2 15.6 0.00 0.00 0.00 78 1001.0
20260505025716 61 208 6.1 15.6 0.00 0.00 0.00 78 1001.0
20260505025516 61 212 7.8 15.6 0.00 0.00 0.00 78 1000.9
20260505025315 61 212 7.8 15.6 0.00 0.00 0.00 78 1001.0
20260505025115 61 211 7.0 13.9 0.00 0.00 0.00 78 1000.9
20260505024915 61 219 7.0 13.9 0.00 0.00 0.00 78 1001.0
20260505024715 61 216 7.0 13.9 0.00 0.00 0.00 77 1000.8
20260505024514 61 212 6.1 13.9 0.00 0.00 0.00 77 1000.9
20260505024314 61 213 5.2 12.2 0.00 0.00 0.00 77 1000.9
20260505024114 61 214 4.3 12.2 0.00 0.00 0.00 76 1000.9
20260505023913 61 207 5.2 12.2 0.00 0.00 0.00 76 1000.8
20260505023713 61 195 6.1 12.2 0.00 0.00 0.00 76 1000.8
20260505023513 61 218 5.2 13.0 0.00 0.00 0.00 76 1000.8
20260505023312 61 231 4.3 13.0 0.00 0.00 0.00 75 1000.9
20260505023112 61 218 5.2 13.9 0.00 0.00 0.00 75 1000.8
20260505022912 61 214 6.1 14.8 0.00 0.00 0.00 75 1000.8
20260505022711 62 215 6.1 15.6 0.00 0.00 0.00 74 1000.9
20260505022511 62 222 5.2 15.6 0.00 0.00 0.00 74 1000.9
20260505022311 62 221 6.1 15.6 0.00 0.00 0.00 74 1000.9
20260505022111 62 220 7.0 16.5 0.00 0.00 0.00 74 1000.9
20260505021910 62 215 7.8 16.5 0.00 0.00 0.00 74 1000.9
20260505021710 62 215 7.8 16.5 0.00 0.00 0.00 73 1000.9
20260505021510 62 213 9.6 16.5 0.00 0.00 0.00 73 1000.9
20260505021309 62 205 8.7 16.5 0.00 0.00 0.00 72 1001.0
20260505021109 62 207 7.8 16.5 0.00 0.00 0.00 72 1001.0
20260505020909 62 202 7.0 16.5 0.00 0.00 0.00 72 1000.9
20260505020708 62 201 7.0 19.1 0.00 0.00 0.00 71 1001.0
20260505020508 63 219 7.0 20.0 0.00 0.00 0.00 71 1001.0
20260505020308 63 224 7.0 20.0 0.00 0.00 0.00 70 1001.0
20260505020108 63 218 7.8 20.0 0.00 0.00 0.00 70 1001.0
20260505015907 63 209 7.8 20.0 0.00 0.00 0.00 70 1001.0
20260505015707 63 209 7.0 14.8 0.00 0.00 0.00 69 1001.1
20260505015507 63 224 5.2 14.8 0.00 0.00 0.00 68 1001.0
20260505015306 63 223 6.1 13.9 0.00 0.00 0.00 68 1001.1
20260505015106 64 216 7.0 13.9 0.00 0.00 0.00 68 1001.1
20260505014906 64 221 6.1 13.0 0.00 0.00 0.00 67 1001.1
20260505014705 64 220 6.1 13.0 0.00 0.00 0.00 66 1001.0
20260505014505 64 221 6.1 13.9 0.00 0.00 0.00 65 1001.0
20260505014307 64 221 6.1 13.9 0.00 0.00 0.00 64 1000.9
20260505014105 64 224 5.2 13.9 0.00 0.00 0.00 63 1000.9
20260505013904 64 219 7.0 14.8 0.00 0.00 0.00 63 1000.9
20260505013704 64 210 7.8 28.7 0.00 0.00 0.00 62 1001.1
20260505013504 65 211 8.7 28.7 0.00 0.00 0.00 61 1001.1
20260505013303 65 220 7.0 28.7 0.00 0.00 0.00 61 1001.1
20260505013103 65 213 8.7 28.7 0.00 0.00 0.00 60 1001.1
20260505012903 65 213 9.6 28.7 0.00 0.00 0.00 60 1001.2
20260505012702 65 206 7.0 14.8 0.00 0.00 0.00 60 1001.1
20260505012502 65 213 7.0 14.8 0.00 0.00 0.00 59 1001.1
20260505012304 65 215 5.2 13.0 0.00 0.00 0.00 59 1001.1
20260505012102 65 218 5.2 13.0 0.00 0.00 0.00 59 1001.0
20260505011901 65 219 4.3 13.0 0.00 0.00 0.00 59 1000.9
20260505011701 65 213 5.2 13.0 0.00 0.00 0.00 59 1000.8
20260505011501 65 210 3.5 13.0 0.00 0.00 0.00 59 1000.8
20260505011300 65 217 5.2 11.3 0.00 0.00 0.00 58 1000.8
20260505011100 65 210 4.3 11.3 0.00 0.00 0.00 58 1000.8
20260505010900 65 210 4.3 11.3 0.00 0.00 0.00 58 1000.8
20260505010659 65 211 4.3 11.3 0.00 0.00 0.00 57 1000.8
20260505010459 65 218 3.5 11.3 0.00 0.00 0.00 57 1000.8
20260505010259 65 218 5.2 11.3 0.00 0.00 0.00 56 1000.8
20260505010059 65 220 5.2 11.3 0.00 0.00 0.00 56 1000.8
20260505005858 65 225 3.5 8.7 0.00 0.00 0.00 55 1000.7
20260505005658 65 233 1.7 10.4 0.00 0.00 0.00 55 1000.8
20260505005458 66 224 1.7 10.4 0.00 0.00 0.00 54 1000.7
20260505005257 66 224 2.6 10.4 0.00 0.00 0.00 54 1000.7
20260505005057 66 220 2.6 10.4 0.00 0.00 0.00 54 1000.8
20260505004857 66 213 4.3 10.4 0.00 0.00 0.00 54 1000.8
20260505004656 66 221 3.5 8.7 0.00 0.00 0.00 53 1000.7
20260505004456 66 226 3.5 7.0 0.00 0.00 0.00 53 1000.7
20260505004256 66 223 3.5 6.1 0.00 0.00 0.00 52 1000.7
20260505004056 66 220 2.6 7.8 0.00 0.00 0.00 52 1000.7
20260505003855 66 220 3.5 10.4 0.00 0.00 0.00 52 1000.7
20260505003655 67 212 3.5 10.4 0.00 0.00 0.00 52 1000.7
20260505003455 67 214 4.3 10.4 0.00 0.00 0.00 51 1000.7
20260505003254 67 211 5.2 10.4 0.00 0.00 0.00 51 1000.7
20260505003054 67 209 3.5 10.4 0.00 0.00 0.00 51 1000.7
20260505002854 67 205 3.5 8.7 0.00 0.00 0.00 50 1000.7
20260505002653 67 201 3.5 8.7 0.00 0.00 0.00 50 1000.7
20260505002453 67 198 3.5 8.7 0.00 0.00 0.00 50 1000.7
20260505002253 67 218 3.5 10.4 0.00 0.00 0.00 49 1000.7
20260505002053 67 211 5.2 10.4 0.00 0.00 0.00 49 1000.7
20260505001852 68 218 4.3 10.4 0.00 0.00 0.00 49 1000.7
20260505001652 68 214 4.3 10.4 0.00 0.00 0.00 49 1000.7
20260505001452 68 221 3.5 10.4 0.00 0.00 0.00 48 1000.7
20260505001251 68 221 2.6 9.6 0.00 0.00 0.00 48 1000.7
20260505001051 68 218 3.5 9.6 0.00 0.00 0.00 48 1000.7
20260505000851 68 220 4.3 9.6 0.00 0.00 0.00 48 1000.7
20260505000650 68 226 4.3 9.6 0.00 0.00 0.00 47 1000.7
20260505000450 68 244 2.6 9.6 0.00 0.00 0.00 47 1000.8
20260505000250 68 232 4.3 9.6 0.00 0.00 0.00 46 1000.8
20260505000050 68 227 3.5 9.6 0.00 0.00 0.00 46 1000.7
20260504235849 68 231 3.5 9.6 0.00 0.00 0.00 46 1000.7
20260504235649 68 213 4.3 11.3 0.00 0.00 0.00 46 1000.7
20260504235449 69 215 4.3 12.2 0.00 0.00 0.00 45 1000.7
20260504235248 69 211 3.5 12.2 0.00 0.00 0.00 45 1000.7
20260504235048 69 213 3.5 12.2 0.00 0.00 0.00 45 1000.7
20260504234848 69 215 3.5 12.2 0.00 0.00 0.00 45 1000.8
20260504234647 69 222 2.6 12.2 0.00 0.00 0.00 44 1000.8
20260504234447 69 226 3.5 9.6 0.00 0.00 0.00 44 1000.8
20260504234247 69 218 3.5 13.9 0.00 0.00 0.00 44 1000.8
20260504234047 69 225 4.3 13.9 0.00 0.00 0.00 43 1000.9
20260504233846 69 224 4.3 13.9 0.00 0.00 0.00 43 1001.0
20260504233646 69 210 5.2 13.9 0.00 0.00 0.00 43 1001.0
20260504233446 69 203 6.1 13.9 0.00 0.00 0.00 42 1001.1
20260504233245 70 215 5.2 14.8 0.00 0.00 0.00 42 1001.1
20260504233045 70 198 4.3 14.8 0.00 0.00 0.00 42 1001.3
20260504232845 70 206 5.2 16.5 0.00 0.00 0.00 41 1001.2
20260504232644 70 211 7.0 16.5 0.00 0.00 0.00 41 1001.2
20260504232444 70 205 6.1 20.9 0.00 0.00 0.00 41 1001.3
20260504232244 70 207 7.0 20.9 0.00 0.00 0.00 40 1001.2
20260504232044 70 227 5.2 20.9 0.00 0.00 0.00 40 1001.1
20260504231843 70 231 4.3 20.9 0.00 0.00 0.00 40 1001.3
20260504231643 70 196 6.1 20.9 0.00 0.00 0.00 40 1001.3
20260504231443 70 161 7.0 20.9 0.00 0.00 0.00 39 1001.1
20260504231242 70 162 6.1 16.5 0.00 0.00 0.00 39 1001.4
20260504231042 70 205 6.1 17.4 0.00 0.00 0.00 39 1001.3
20260504230842 70 219 6.1 17.4 0.00 0.00 0.00 39 1001.5
20260504230641 70 189 6.1 17.4 0.00 0.00 0.00 38 1001.3
20260504230441 71 202 7.0 26.1 0.00 0.00 0.00 38 1001.5
20260504230241 71 204 8.7 26.1 0.00 0.00 0.00 38 1001.4
20260504230040 71 213 7.0 26.1 0.00 0.00 0.00 38 1001.4
20260504225840 71 185 7.0 26.1 0.00 0.00 0.00 38 1001.5
20260504225640 71 184 8.7 26.1 0.00 0.00 0.00 38 1001.5
20260504225440 71 197 8.7 26.1 0.00 0.00 0.00 38 1001.5
20260504225239 71 204 6.1 23.5 0.00 0.00 0.00 39 1001.7
20260504225039 71 214 5.2 23.5 0.00 0.00 0.00 40 1001.7
20260504224839 71 219 4.3 23.5 0.00 0.00 0.00 40 1001.7
20260504224638 71 204 7.0 23.5 0.00 0.00 0.00 39 1001.7
20260504224438 71 188 9.6 24.3 0.00 0.00 0.00 38 1001.7
20260504224238 71 191 9.6 25.2 0.00 0.00 0.00 38 1001.7
20260504224038 71 215 6.1 25.2 0.00 0.00 0.00 38 1001.6
20260504223837 71 215 7.0 25.2 0.00 0.00 0.00 39 1001.7
20260504223637 72 179 8.7 25.2 0.00 0.00 0.00 38 1001.8
20260504223437 72 160 7.8 25.2 0.00 0.00 0.00 38 1001.8
20260504223236 72 210 7.0 25.2 0.00 0.00 0.00 38 1001.8
20260504223036 72 219 5.2 25.2 0.00 0.00 0.00 38 1001.7
20260504222836 72 221 7.0 25.2 0.00 0.00 0.00 38 1001.7
20260504222635 72 205 7.0 25.2 0.00 0.00 0.00 38 1001.8
20260504222435 72 195 9.6 25.2 0.00 0.00 0.00 38 1001.8
20260504222235 73 200 9.6 23.5 0.00 0.00 0.00 38 1001.8
20260504222035 73 207 8.7 23.5 0.00 0.00 0.00 37 1001.8
20260504221834 73 204 9.6 23.5 0.00 0.00 0.00 37 1001.6
20260504221634 73 212 8.7 23.5 0.00 0.00 0.00 37 1001.8
20260504221434 74 183 7.8 17.4 0.00 0.00 0.00 38 1001.7
20260504221233 74 190 7.0 17.4 0.00 0.00 0.00 37 1001.7
20260504221033 74 205 6.1 17.4 0.00 0.00 0.00 38 1001.9
20260504220833 74 211 6.1 17.4 0.00 0.00 0.00 38 1001.6
20260504220632 74 209 7.8 21.7 0.00 0.00 0.00 38 1001.7
20260504220432 74 215 6.1 21.7 0.00 0.00 0.00 39 1001.7
20260504220232 74 225 6.1 21.7 0.00 0.00 0.00 40 1001.7
20260504220031 73 192 6.1 21.7 0.00 0.00 0.00 40 1001.7
20260504215831 73 206 8.7 21.7 0.00 0.00 0.00 39 1001.6
20260504215631 73 191 10.4 21.7 0.00 0.00 0.00 39 1001.7
20260504215431 73 195 9.6 17.4 0.00 0.00 0.00 38 1001.7
20260504215230 73 209 7.0 27.8 0.00 0.00 0.00 40 1001.7
20260504215030 73 195 7.0 27.8 0.00 0.00 0.00 40 1001.7
20260504214830 73 231 7.0 27.8 0.00 0.00 0.00 40 1001.8
20260504214629 73 168 8.7 27.8 0.00 0.00 0.00 40 1001.7
20260504214429 73 194 9.6 27.8 0.00 0.00 0.00 39 1001.8
20260504214229 73 210 9.6 20.0 0.00 0.00 0.00 39 1001.8
20260504214028 73 199 7.8 20.0 0.00 0.00 0.00 39 1001.7
20260504213828 73 188 7.8 20.0 0.00 0.00 0.00 40 1001.8
20260504213628 73 210 7.8 20.0 0.00 0.00 0.00 40 1001.7
20260504213428 73 208 7.8 20.0 0.00 0.00 0.00 40 1001.8
20260504213227 73 191 8.7 20.0 0.00 0.00 0.00 40 1001.6
20260504213027 73 223 9.6 20.0 0.00 0.00 0.00 40 1001.7
20260504212827 73 219 8.7 20.0 0.00 0.00 0.00 40 1001.8
20260504212626 73 220 7.8 20.9 0.00 0.00 0.00 41 1001.8
20260504212426 73 179 7.8 23.5 0.00 0.00 0.00 40 1001.8
20260504212226 73 177 7.8 23.5 0.00 0.00 0.00 40 1001.6
20260504212025 73 208 9.6 23.5 0.00 0.00 0.00 40 1001.6
20260504211825 73 195 7.8 24.3 0.00 0.00 0.00 40 1001.6
20260504211625 73 200 10.4 24.3 0.00 0.00 0.00 41 1001.7
20260504211425 73 180 8.7 24.3 0.00 0.00 0.00 41 1001.7
20260504211224 73 183 9.6 24.3 0.00 0.00 0.00 41 1001.6
20260504211024 73 201 7.8 24.3 0.00 0.00 0.00 41 1001.6
20260504210824 73 191 7.8 21.7 0.00 0.00 0.00 41 1001.7
20260504210623 73 200 9.6 21.7 0.00 0.00 0.00 41 1001.6
20260504210423 73 216 7.8 20.0 0.00 0.00 0.00 42 1001.6
20260504210223 74 162 7.8 18.2 0.00 0.00 0.00 41 1001.6
20260504210022 74 166 7.0 18.2 0.00 0.00 0.00 41 1001.5
20260504205822 74 201 7.0 19.1 0.00 0.00 0.00 41 1001.6
20260504205622 74 202 7.0 21.7 0.00 0.00 0.00 42 1001.5
20260504205422 74 210 7.0 22.6 0.00 0.00 0.00 42 1001.6
20260504205221 74 228 7.8 22.6 0.00 0.00 0.00 41 1001.5
20260504205021 74 187 9.6 22.6 0.00 0.00 0.00 41 1001.6